| time (UTC) | temp C | wind direction | speed KPH | gust KPH | rain 1hr cm | rain 24hr cm | rain mn cm | humidity % | barometer mb |
| 20260510081542 | 5 | 73 | 3.2 | 4.8 | 0.00 | 0.00 | 0.00 | 78 | 1018.7 |
| 20260510080053 | 6 | 73 | 3.2 | 6.4 | 0.00 | 0.00 | 0.00 | 75 | 1018.7 |
| 20260510074539 | 7 | 60 | 4.8 | 8.0 | 0.00 | 0.00 | 0.00 | 75 | 1018.7 |
| 20260510073044 | 7 | 121 | 3.2 | 12.9 | 0.00 | 0.00 | 0.00 | 75 | 1018.9 |
| 20260510071537 | 6 | 62 | 6.4 | 8.0 | 0.00 | 0.00 | 0.00 | 77 | 1018.8 |
| 20260510070048 | 6 | 74 | 1.6 | 6.4 | 0.00 | 0.00 | 0.00 | 75 | 1018.9 |
| 20260510064542 | 6 | 63 | 1.6 | 6.4 | 0.00 | 0.00 | 0.00 | 73 | 1018.9 |
| 20260510063038 | 7 | 63 | 3.2 | 6.4 | 0.00 | 0.00 | 0.00 | 72 | 1018.9 |
| 20260510061537 | 7 | 69 | 3.2 | 8.0 | 0.00 | 0.00 | 0.00 | 68 | 1018.9 |
| 20260510060044 | 9 | 50 | 3.2 | 8.0 | 0.00 | 0.00 | 0.00 | 64 | 1019.0 |
| 20260510054536 | 11 | 0 | 0.0 | 0.0 | 0.00 | 0.00 | 0.00 | 64 | 1018.8 |
| 20260510053041 | 11 | 0 | 0.0 | 4.8 | 0.00 | 0.00 | 0.00 | 61 | 1018.9 |
| 20260510051538 | 11 | 309 | 0.0 | 4.8 | 0.00 | 0.00 | 0.00 | 61 | 1018.8 |
| 20260510050038 | 11 | 0 | 0.0 | 4.8 | 0.00 | 0.00 | 0.00 | 60 | 1018.8 |
| 20260510044538 | 12 | 309 | 1.6 | 12.9 | 0.00 | 0.00 | 0.00 | 58 | 1018.8 |
| 20260510043037 | 12 | 249 | 4.8 | 20.9 | 0.00 | 0.00 | 0.00 | 61 | 1018.6 |
| 20260510041537 | 11 | 129 | 1.6 | 12.9 | 0.00 | 0.00 | 0.00 | 65 | 1018.4 |
| 20260510040039 | 10 | 58 | 6.4 | 12.9 | 0.00 | 0.00 | 0.00 | 65 | 1018.3 |
| 20260510034538 | 10 | 64 | 4.8 | 8.0 | 0.00 | 0.00 | 0.00 | 64 | 1018.3 |
| 20260510033047 | 11 | 64 | 3.2 | 11.3 | 0.00 | 0.00 | 0.00 | 61 | 1018.2 |
| 20260510031542 | 11 | 56 | 8.0 | 14.5 | 0.00 | 0.00 | 0.00 | 61 | 1018.0 |
| 20260510030037 | 12 | 87 | 1.6 | 4.8 | 0.00 | 0.00 | 0.00 | 58 | 1017.8 |
| 20260510024541 | 13 | 100 | 6.4 | 9.7 | 0.00 | 0.00 | 0.00 | 56 | 1017.4 |
| 20260510023038 | 13 | 65 | 6.4 | 11.3 | 0.00 | 0.00 | 0.00 | 53 | 1017.4 |
| 20260510021620 | 14 | 98 | 3.2 | 14.5 | 0.00 | 0.00 | 0.00 | 50 | 1017.4 |
| 20260510020037 | 15 | 95 | 4.8 | 8.0 | 0.00 | 0.00 | 0.00 | 50 | 1017.5 |
| 20260510014551 | 15 | 88 | 3.2 | 8.0 | 0.00 | 0.00 | 0.00 | 48 | 1017.4 |
| 20260510013036 | 16 | 78 | 4.8 | 9.7 | 0.00 | 0.00 | 0.00 | 44 | 1017.5 |
| 20260510011540 | 16 | 72 | 6.4 | 9.7 | 0.00 | 0.00 | 0.00 | 44 | 1017.6 |
| 20260510010048 | 16 | 96 | 3.2 | 8.0 | 0.00 | 0.00 | 0.00 | 42 | 1017.6 |
| 20260510004539 | 16 | 92 | 3.2 | 9.7 | 0.00 | 0.00 | 0.00 | 42 | 1017.6 |
| 20260510003034 | 16 | 37 | 11.3 | 16.1 | 0.00 | 0.00 | 0.00 | 45 | 1017.7 |
| 20260510001537 | 16 | 22 | 4.8 | 8.0 | 0.00 | 0.00 | 0.00 | 44 | 1017.6 |
| 20260510000037 | 16 | 360 | 3.2 | 12.9 | 0.00 | 0.00 | 0.00 | 41 | 1017.7 |
| 20260509234536 | 17 | 333 | 4.8 | 6.4 | 0.00 | 0.00 | 0.00 | 38 | 1017.5 |
| 20260509233038 | 17 | 200 | 0.0 | 8.0 | 0.00 | 0.00 | 0.00 | 37 | 1017.5 |
| 20260509231537 | 17 | 0 | 0.0 | 6.4 | 0.00 | 0.00 | 0.00 | 37 | 1017.5 |
| 20260509230041 | 17 | 216 | 3.2 | 8.0 | 0.00 | 0.00 | 0.00 | 37 | 1017.7 |
| 20260509224534 | 17 | 175 | 1.6 | 12.9 | 0.00 | 0.00 | 0.00 | 37 | 1017.6 |
| 20260509223039 | 17 | 123 | 6.4 | 14.5 | 0.00 | 0.00 | 0.00 | 37 | 1017.7 |
| 20260509221540 | 17 | 166 | 9.7 | 14.5 | 0.00 | 0.00 | 0.00 | 37 | 1017.8 |
| 20260509220040 | 16 | 202 | 3.2 | 12.9 | 0.00 | 0.00 | 0.00 | 38 | 1017.9 |
| 20260509214542 | 16 | 220 | 6.4 | 12.9 | 0.00 | 0.00 | 0.00 | 38 | 1018.0 |
| 20260509213038 | 16 | 200 | 9.7 | 19.3 | 0.00 | 0.00 | 0.00 | 38 | 1018.0 |
| 20260509211538 | 16 | 294 | 3.2 | 12.9 | 0.00 | 0.00 | 0.00 | 38 | 1018.1 |
| 20260509210044 | 16 | 354 | 8.0 | 25.7 | 0.00 | 0.00 | 0.00 | 38 | 1018.2 |
| 20260509204538 | 16 | 277 | 3.2 | 12.9 | 0.00 | 0.00 | 0.00 | 37 | 1018.2 |
| 20260509203037 | 16 | 289 | 4.8 | 16.1 | 0.00 | 0.00 | 0.00 | 36 | 1018.2 |
| 20260509201540 | 16 | 274 | 4.8 | 14.5 | 0.00 | 0.00 | 0.00 | 36 | 1017.9 |
| 20260509200040 | 16 | 252 | 9.7 | 20.9 | 0.00 | 0.00 | 0.00 | 36 | 1017.9 |
| 20260509194551 | 16 | 0 | 1.6 | 8.0 | 0.00 | 0.00 | 0.00 | 35 | 1017.9 |
| 20260509193036 | 16 | 272 | 11.3 | 17.7 | 0.00 | 0.00 | 0.00 | 35 | 1017.9 |
| 20260509191537 | 16 | 283 | 12.9 | 19.3 | 0.00 | 0.00 | 0.00 | 35 | 1017.9 |
| 20260509190040 | 16 | 139 | 1.6 | 16.1 | 0.00 | 0.00 | 0.00 | 35 | 1018.1 |
| 20260509184536 | 16 | 270 | 3.2 | 11.3 | 0.00 | 0.00 | 0.00 | 36 | 1018.2 |
| 20260509183040 | 16 | 111 | 4.8 | 14.5 | 0.00 | 0.00 | 0.00 | 36 | 1018.2 |
| 20260509181542 | 16 | 214 | 6.4 | 14.5 | 0.00 | 0.00 | 0.00 | 36 | 1018.0 |
| 20260509180052 | 16 | 214 | 6.4 | 14.5 | 0.00 | 0.00 | 0.00 | 35 | 1018.0 |
| 20260509174540 | 16 | 60 | 3.2 | 12.9 | 0.00 | 0.00 | 0.00 | 37 | 1017.9 |
| 20260509173052 | 15 | 199 | 9.7 | 19.3 | 0.00 | 0.00 | 0.00 | 36 | 1017.8 |
| 20260509171541 | 15 | 215 | 8.0 | 14.5 | 0.00 | 0.00 | 0.00 | 38 | 1017.6 |
| 20260509170037 | 15 | 191 | 6.4 | 11.3 | 0.00 | 0.00 | 0.00 | 38 | 1017.7 |
| 20260509164541 | 15 | 224 | 4.8 | 9.7 | 0.00 | 0.00 | 0.00 | 37 | 1017.6 |
| 20260509163036 | 15 | 202 | 6.4 | 16.1 | 0.00 | 0.00 | 0.00 | 37 | 1017.5 |
| 20260509161552 | 15 | 359 | 0.0 | 8.0 | 0.00 | 0.00 | 0.00 | 38 | 1017.4 |
| 20260509160039 | 15 | 347 | 4.8 | 11.3 | 0.00 | 0.00 | 0.00 | 39 | 1017.2 |
| 20260509154548 | 14 | 8 | 3.2 | 12.9 | 0.00 | 0.00 | 0.00 | 42 | 1017.1 |
| 20260509153052 | 13 | 50 | 8.0 | 16.1 | 0.00 | 0.00 | 0.00 | 43 | 1017.1 |
| 20260509151536 | 13 | 62 | 6.4 | 12.9 | 0.00 | 0.00 | 0.00 | 45 | 1017.1 |
| 20260509150038 | 12 | 79 | 4.8 | 9.7 | 0.00 | 0.00 | 0.00 | 47 | 1016.8 |
| 20260509144536 | 12 | 77 | 3.2 | 11.3 | 0.00 | 0.00 | 0.00 | 48 | 1016.6 |
| 20260509143037 | 11 | 67 | 3.2 | 8.0 | 0.00 | 0.00 | 0.00 | 49 | 1016.4 |
| 20260509141541 | 11 | 70 | 4.8 | 11.3 | 0.00 | 0.00 | 0.00 | 50 | 1016.3 |
| 20260509140052 | 11 | 75 | 3.2 | 12.9 | 0.00 | 0.00 | 0.00 | 51 | 1016.4 |
| 20260509134534 | 10 | 103 | 4.8 | 9.7 | 0.00 | 0.00 | 0.00 | 52 | 1016.2 |
| 20260509133039 | 10 | 66 | 3.2 | 9.7 | 0.00 | 0.00 | 0.00 | 52 | 1016.2 |
| 20260509131537 | 10 | 64 | 6.4 | 12.9 | 0.00 | 0.00 | 0.00 | 53 | 1016.0 |
| 20260509130037 | 10 | 56 | 4.8 | 9.7 | 0.00 | 0.00 | 0.00 | 53 | 1015.9 |
| 20260509124539 | 10 | 72 | 6.4 | 11.3 | 0.00 | 0.00 | 0.00 | 53 | 1015.7 |
| 20260509123037 | 10 | 75 | 6.4 | 9.7 | 0.00 | 0.00 | 0.00 | 53 | 1015.5 |
| 20260509121535 | 10 | 56 | 3.2 | 8.0 | 0.00 | 0.00 | 0.00 | 54 | 1015.1 |
| 20260509120039 | 10 | 0 | 0.0 | 3.2 | 0.00 | 0.00 | 0.00 | 54 | 1015.0 |
| 20260509114537 | 10 | 198 | 0.0 | 4.8 | 0.00 | 0.00 | 0.00 | 54 | 1015.0 |
| 20260509113037 | 10 | 189 | 3.2 | 9.7 | 0.00 | 0.00 | 0.00 | 53 | 1014.6 |
| 20260509111536 | 10 | 304 | 3.2 | 9.7 | 0.00 | 0.00 | 0.00 | 52 | 1014.5 |
| 20260509110040 | 10 | 26 | 1.6 | 4.8 | 0.00 | 0.00 | 0.00 | 52 | 1014.1 |
| 20260509104538 | 10 | 26 | 3.2 | 6.4 | 0.00 | 0.00 | 0.00 | 50 | 1014.1 |
| 20260509103045 | 11 | 0 | 0.0 | 4.8 | 0.00 | 0.00 | 0.00 | 50 | 1014.1 |
| 20260509101539 | 11 | 0 | 0.0 | 3.2 | 0.00 | 0.00 | 0.00 | 49 | 1013.9 |
| 20260509100037 | 11 | 0 | 0.0 | 3.2 | 0.00 | 0.00 | 0.00 | 49 | 1013.8 |
| 20260509094543 | 11 | 349 | 4.8 | 11.3 | 0.00 | 0.00 | 0.00 | 49 | 1013.7 |
| 20260509093040 | 11 | 351 | 6.4 | 12.9 | 0.00 | 0.00 | 0.00 | 49 | 1013.5 |
| 20260509091547 | 11 | 345 | 6.4 | 11.3 | 0.00 | 0.00 | 0.00 | 49 | 1013.4 |
| 20260509090050 | 11 | 345 | 6.4 | 11.3 | 0.00 | 0.00 | 0.00 | 49 | 1013.3 |
| 20260509084537 | 11 | 358 | 6.4 | 12.9 | 0.00 | 0.00 | 0.00 | 49 | 1013.0 |
| 20260509083040 | 11 | 354 | 8.0 | 14.5 | 0.00 | 0.00 | 0.00 | 50 | 1013.0 |